Location: Platte
(43.3870°N, 98.8440°W)
Time: 00:00:34
(UTC-05:00)

Daily predictions for brighter satellites

Satellite Brightness Start Highest point End
(mag) Time Altitude Azimuth Time Altitude Azimuth Time Altitude Azimuth
Cosmos 1464 Rocket 4.3 00:19:32 62° N 00:19:32 62° N 00:24:46 10° N
Cosmos 2278 Rocket 4.2 00:19:58 10° N 00:23:50 18° NE 00:23:57 18° NE
SL-16 R/B 3.4 00:39:10 37° NW 00:39:10 37° NW 00:44:12 10° N
Cosmos 1844 Rocket 4.0 00:48:39 10° NNW 00:52:10 36° N 00:52:10 36° N
Cosmos 2360 Rocket 3.5 00:58:49 37° N 00:58:49 37° N 01:02:16 10° NNE
Cosmos 2219 Rocket 4.0 01:21:35 23° NE 01:21:35 23° NE 01:23:45 10° NE
Cosmos 2263 Rocket 4.5 01:20:15 10° NW 01:21:38 15° WNW 01:21:38 15° WNW
Cosmos 2322 Rocket 4.5 01:26:54 15° WNW 01:28:33 17° NW 01:32:06 10° N
Cosmos 2333 Rocket 4.0 01:33:46 25° NE 01:33:46 25° NE 01:36:18 10° NE
Cosmos 2237 Rocket 4.0 01:37:53 24° NE 01:37:53 24° NE 01:40:16 10° NE
COSMOS 2428 4.1 01:49:05 36° N 01:49:05 36° N 01:52:38 10° NNE
Cosmos 2278 Rocket 3.7 02:02:57 10° NNW 02:05:46 31° NNW 02:05:46 31° NNW
Lacrosse 4 Rocket 4.3 02:17:21 16° NNW 02:17:21 16° NNW 02:18:48 10° N
CZ-2C R/B 4.2 02:35:01 10° N 02:38:26 30° NW 02:38:26 30° NW
ATLAS CENTAUR R/B 4.5 02:38:29 10° N 02:40:55 14° NNE 02:43:15 10° ENE
ATLAS 3B R/B 2.9 02:41:57 74° NNW 02:41:57 74° NNW 02:49:00 10° NE
Cosmos 2369 Rocket 4.5 02:48:29 10° N 02:52:34 20° NE 02:56:38 10° E
COSMOS 2455 3.7 02:58:19 42° NNW 02:58:19 42° NNW 03:03:16 10° NNE
Cosmos 2219 Rocket 3.7 03:03:18 26° NW 03:03:18 26° NW 03:07:19 10° N
Cosmos 1867 4.4 03:08:52 48° NE 03:08:52 48° NE 03:12:48 10° NE
SL-16 R/B 2.8 03:14:39 53° N 03:14:39 53° N 03:19:08 10° NNE
Cosmos 2333 Rocket 3.6 03:15:47 29° NW 03:15:47 29° NW 03:20:16 10° N
ARIANE 5 R/B 4.3 03:11:13 10° NE 03:15:20 23° E 03:15:40 23° E
Cosmos 1607 4.1 03:16:53 70° NNE 03:16:53 70° NNE 03:22:18 10° NNE
Cosmos 2237 Rocket 3.5 03:19:43 30° NW 03:19:43 30° NW 03:24:07 10° N
BREEZE-M DEB (TANK) 3.9 03:21:55 43° NNE 03:21:55 43° NNE 03:25:11 10° NE
Resurs 1-4 Rocket 3.9 03:18:41 10° NE 03:22:40 21° E 03:23:37 20° ESE
Meteor 2-2 Rocket 4.5 03:23:29 72° NE 03:23:29 72° NE 03:28:49 10° NNE
USA 234 3.6 03:26:14 10° ENE 03:32:32 48° SE 03:32:36 48° SE
USA 238 DEB 3.7 03:32:15 70° WNW 03:32:41 72° NW 03:39:46 10° NNE
USA 238 3.7 03:32:21 70° WNW 03:32:47 72° NW 03:39:51 10° NE
ERS-2 4.5 03:33:42 10° NE 03:35:33 22° ENE 03:35:33 22° ENE
BREEZE-M DEB (TANK) 4.3 03:28:05 10° WNW 03:37:29 53° NW 03:37:29 53° NW
BREEZE-M DEB (TANK) 3.7 03:43:46 62° SW 03:45:10 86° SE 03:49:16 10° NE
CZ-4C R/B 2.3 03:46:31 65° NW 03:46:31 65° NW 03:52:21 10° NNE
NOSS 3-2 (A) 3.4 03:48:28 69° SSE 03:48:49 71° ESE 03:55:26 10° NE
Cosmos 2251 Rocket 4.2 03:48:47 46° ESE 03:48:56 47° ESE 03:53:57 10° NNE
Cosmos 1110 Rocket 4.4 03:45:40 10° NNW 03:50:50 59° ENE 03:51:44 51° ESE
ATLAS 5 CENTAUR R/B 3.8 03:51:30 18° ESE 03:52:05 19° ESE 03:55:33 10° ENE
Cosmos 1603 3.6 03:56:00 81° WNW 03:56:00 81° WNW 04:01:44 10° NNE
CBERS-1 4.3 03:52:12 10° N 03:56:39 59° NW 03:56:39 59° NW
NOSS 3-3 (A) 4.4 03:50:18 10° NW 03:57:46 86° NE 04:05:43 10° SE
NOSS 3-3 (C) 4.4 03:50:24 10° NW 03:57:52 86° NE 04:05:49 10° SE
In-Cosmos 22 Rocket 4.1 03:56:38 10° N 04:01:58 77° E 04:02:31 69° SE
NOSS 3-2 (C) 3.4 04:04:09 63° S 04:05:05 74° ESE 04:11:44 10° NE
IRS-1C 4.1 04:02:34 10° N 04:07:49 66° WNW 04:07:49 66° WNW
S3M 3.9 04:07:52 62° WSW 04:08:21 65° W 04:14:39 10° N
Cosmos 1892 4.1 04:04:54 10° N 04:08:28 35° ENE 04:08:51 34° E
SL-16 R/B 2.5 04:05:49 35° SSE 04:08:34 79° ENE 04:14:47 10° NNW
CENTAUR R/B 4.3 04:05:36 14° SE 04:08:46 21° ESE 04:13:30 10° ENE
Meteor 2-3 Rocket 3.8 04:03:22 10° N 04:09:10 76° E 04:11:03 44° SSE
Cosmos 1869 Rocket 4.1 04:07:10 10° N 04:10:32 51° NNW 04:10:32 51° NNW
Cosmos 1356 Rocket 4.3 04:08:43 10° N 04:11:31 43° N 04:11:31 43° N
ERS-1 4.3 04:08:09 10° NNE 04:13:08 86° WNW 04:13:14 85° WSW
Cosmos 2242 Rocket 4.3 04:14:01 45° SE 04:14:45 50° E 04:19:11 10° NNE
Abrixas rocket 4.1 04:17:14 30° NNE 04:17:14 30° NNE 04:19:31 10° ENE
ATLAS CENTAUR R/B 1.8 04:16:24 10° NNW 04:20:00 56° NNW 04:20:00 56° NNW
Cosmos 1726 3.3 04:24:53 35° NNW 04:24:53 35° NNW 04:27:18 10° N
CZ-2D R/B 2.1 04:20:03 10° NNE 04:25:21 75° ESE 04:26:44 49° S
Cosmos 839 Rocket 4.3 04:17:55 10° NW 04:26:14 75° WSW 04:32:51 10° SSE
Cosmos 1943 3.2 04:25:33 54° S 04:26:52 80° ESE 04:32:33 10° NNE
Cosmos 1300 4.0 04:29:20 31° NNW 04:29:20 31° NNW 04:31:43 10° N
Cosmos 1553 Rocket 4.3 04:28:02 43° W 04:28:40 45° WNW 04:34:31 10° N
Cosmos 1386 Rocket 4.4 04:23:19 10° NNW 04:29:34 65° W 04:31:14 47° SSW
UNK 3.6 04:30:56 73° SW 04:31:05 74° WSW 04:35:43 10° NNW
Cosmos 494 Rocket 4.0 04:30:01 56° S 04:31:10 83° ESE 04:36:27 10° NNE
Cosmos 1745 Rocket 4.3 04:25:17 10° NNW 04:31:19 47° W 04:32:03 45° WSW
Cosmos 1709 Rocket 4.0 04:26:54 10° N 04:33:19 85° E 04:37:52 20° S
ATLAS 3B R/B 4.4 04:29:11 16° WNW 04:33:30 25° NNW 04:39:22 10° NNE
Cosmos 2369 Rocket 2.0 04:31:35 10° NNW 04:37:12 73° WSW 04:41:03 21° SSE
Cosmos 1455 2.7 04:40:22 46° SE 04:41:12 58° E 04:45:03 10° NNE
Cosmos 1302 Rocket 4.0 04:36:16 10° NNW 04:41:34 85° ENE 04:46:47 10° SSE
Spot 4 Rocket 4.4 04:37:48 10° N 04:42:42 44° WNW 04:43:21 42° W
IRS-1D 3.6 04:37:58 10° N 04:43:07 64° WNW 04:44:23 48° SW
Cosmos 389 Rocket 4.1 04:45:46 22° SE 04:47:15 32° E 04:50:25 10° NNE
ADEOS 4.2 04:43:22 10° N 04:48:08 37° WNW 04:48:52 35° W
Cosmos 1271 Rocket 4.3 04:49:06 24° NW 04:49:06 24° NW 04:51:41 10° NNW
Cosmos 1733 Rocket 3.2 04:46:29 10° N 04:50:53 75° E 04:53:57 19° SSE
Cosmos 1707 Rocket 4.3 04:54:15 35° WNW 04:54:15 35° WNW 04:58:22 10° N
ARIANE 5 R/B 2.9 04:49:39 10° N 04:54:40 47° WNW 04:56:01 38° WSW
Cosmos 1331 Rocket 4.4 04:52:11 10° NW 04:57:07 41° WSW 04:57:49 39° WSW
SL-16 R/B 4.3 04:56:32 11° WNW 04:58:40 14° NW 05:01:30 10° NNW
Cosmos 1184 Rocket 3.0 04:57:47 10° N 05:01:14 73° E 05:02:58 27° SSE
Resurs 1-4 Rocket 2.3 04:57:42 10° N 05:02:47 51° WNW 05:04:42 34° SW
Cosmos 1943 Rocket 2.3 04:58:07 10° NNW 05:03:50 81° ENE 05:09:28 10° SSE
Cosmos 2263 4.3 05:03:18 10° NNW 05:08:58 57° WSW 05:14:37 10° S
ERS-2 3.8 05:07:50 10° NNW 05:10:23 20° WNW 05:10:23 20° WNW
SeaSat 1 2.3 05:06:22 10° SSE 05:11:16 70° WSW 05:16:13 10° NNW
USA 234 3.6 05:09:12 10° NE 05:15:36 57° NNW 05:19:56 21° WSW
Okean O Rocket 1.6 05:11:52 10° NNE 05:16:22 84° ESE 05:19:41 18° S
Cosmos 1408 3.5 05:13:13 10° N 05:16:52 50° E 05:20:31 10° SSE
Cosmos 1825 2.9 05:14:33 10° N 05:18:19 54° E 05:22:01 10° SSE
Cosmos 1908 Rocket 3.9 05:14:16 10° N 05:18:39 66° E 05:22:59 10° SSE
ADEOS II 3.8 05:14:13 10° NNE 05:18:52 31° E 05:23:29 10° SSE
Okean-O 4.5 05:15:39 10° NE 05:19:34 29° E 05:23:27 10° SSE
Cosmos 1862 3.7 05:16:30 10° N 05:20:28 64° E 05:24:24 10° SSE
Pageos (A) 2.8 05:20:41 10° N 05:22:50 85° E 05:23:05 65° SSE
Thor Agena Rocket 3.7 05:21:04 10° SSE 05:26:10 75° ENE 05:31:23 10° N
EO 1 Del DPAF 4.3 05:26:17 26° W 05:26:17 26° W 05:29:29 10° NW
UNKNOWN OBJECT B 3.6 05:23:03 10° N 05:26:21 30° WNW 05:27:12 27° W
CZ-2D R/B 3.9 05:22:51 10° N 05:27:05 46° WNW 05:29:17 25° SW
Cosmos 2285 Rocket 4.2 05:20:47 10° NNW 05:27:15 78° ENE 05:33:38 10° SSE
Cosmos 2315 Rocket 4.4 05:24:15 22° SW 05:27:55 43° WNW 05:33:53 10° N
CZ-4B R/B 2.7 05:25:43 10° NNE 05:29:21 78° ESE 05:32:45 12° S
Sich 1 Rocket 3.5 05:27:15 10° NNW 05:31:39 72° W 05:36:01 10° S
Cosmos 1869 3.7 05:31:14 25° SW 05:33:08 43° WNW 05:36:58 10° N
CZ-4C R/B 4.2 05:32:06 10° WNW 05:36:08 19° NNW 05:40:31 10° NNE
ATLAS 5 CENTAUR R/B 2.0 05:33:05 22° SW 05:36:10 62° NW 05:41:25 10° NNE
SL-27 R/B 2.5 05:34:00 18° SSW 05:36:38 88° WNW 05:40:18 10° NNE
Cosmos 1933 3.3 05:32:41 10° S 05:36:48 88° WNW 05:40:55 10° N
Cosmos 1656 Rocket 3.9 05:31:45 10° NNW 05:37:11 72° ENE 05:42:35 10° SSE
Cosmos 1703 Rocket 3.8 05:32:52 10° S 05:37:19 72° E 05:41:49 10° NNE
USA 32 4.2 05:32:14 10° S 05:37:27 76° E 05:42:42 10° N
IRS-1C Rocket 4.1 05:32:14 10° N 05:37:27 63° WNW 05:42:15 12° SSW
SL-08 ROCKET BODY 4.4 05:31:51 10° N 05:37:51 78° W 05:43:57 10° S
Cosmos 1992 Rocket 4.1 05:32:56 10° NNW 05:38:12 84° ENE 05:43:26 10° SSE
Cosmos 1892 4.4 05:41:34 10° NW 05:43:54 16° W 05:43:54 16° W
CZ-2C R/B 4.1 05:44:21 10° SSW 05:48:31 39° W 05:52:41 10° NNW
SL-16 R/B 3.9 05:50:55 15° WSW 05:52:53 17° W 05:56:42 10° NW
Abrixas rocket 3.4 05:50:43 10° WNW 05:53:55 40° NNE 05:57:07 10° E
ADEOS Rocket 3.8 05:47:24 10° NNE 05:55:10 79° ESE 06:02:55 10° S
Aureole 3 Rocket 3.9 05:49:05 10° S 05:56:23 88° W 06:01:30 10° N
Atlas Centaur 2 4.1 05:55:17 10° S 05:56:45 11° SSE 05:58:18 10° SE
CENTAUR R/B 2.6 05:52:48 12° SW 05:58:33 73° NW 06:05:32 10° NE
PSLV R/B 3.6 05:54:24 10° NNE 05:58:48 86° ESE 06:03:12 10° SSW
USA 116 4.3 05:57:25 10° SSE 06:02:08 89° WSW 06:07:24 10° NNW
CZ-2D R/B 3.8 06:01:37 10° NNW 06:04:47 16° WNW 06:07:55 10° W
COSMOS 2406 3.3 06:02:10 10° SSW 06:07:54 68° WNW 06:13:40 10° NNE
Okean 2 Rocket 3.1 06:06:16 10° NNW 06:10:46 71° W 06:15:15 10° S
PSLV R/B 3.6 06:08:14 11° W 06:11:28 51° S 06:14:47 10° ESE
Cosmos 1455 4.4 06:16:14 10° W 06:17:20 11° WNW 06:18:26 10° NW
Nadezhda 1 Rocket 4.3 06:12:06 10° SSW 06:18:08 51° WNW 06:24:20 10° N
Okean 1-7 3.1 06:15:33 10° SSW 06:19:47 62° W 06:24:07 10° N
Meteor PRIRODA 3.6 06:16:13 10° N 06:20:00 76° WNW 06:23:45 10° SSW
CZ-4B R/B 3.9 06:17:15 10° N 06:22:01 35° WNW 06:26:44 10° SW
Cosmos 389 Rocket 4.4 06:20:18 10° WSW 06:22:19 15° WNW 06:24:21 10° NNW
Cosmos 407 Rocket 3.5 06:20:19 10° SSW 06:25:31 86° WNW 06:30:50 10° NNE
Cosmos 2181 Rocket 4.2 06:20:38 10° S 06:27:05 87° E 06:33:31 10° N
